Regional Weather Roundup
Issued by NWS Little Rock, AR

Home | Current Version | Previous Version | Graphics & Text | Print | Product List | Glossary On
Versions: 1 2 3 4 5 6 7 8 9 10 11 12 13 14 15 16 17 18 19 20 21 22 23 24 25 26 27 28 29 30 31 32 33 34 35 36 37 38 39 40 41 42 43 44 45 46 47 48 49 50
000
ASUS44 KLZK 211305
RWRLZK

WEATHER ROUNDUP FOR ARKANSAS
NATIONAL WEATHER SERVICE LITTLE ROCK AR
800 AM CDT SAT OCT 21 2017

NOTE: "FAIR" INDICATES FEW OR NO CLOUDS BELOW 12,000 FEET WITH NO
SIGNIFICANT WEATHER AND/OR OBSTRUCTIONS TO VISIBILITY.

ARZ001-003-010-029-211400-
NORTHWEST ARKANSAS

CITY           SKY/WX    TMP DP  RH WIND       PRES   REMARKS
FAYETTEVILLE   MOCLDY    65  62  90 S9        29.96S
FORT SMITH     MOCLDY    65  61  87 NE7       29.96S
HARRISON       MOCLDY    64  60  87 SE8       29.99F
BENTONVILLE    CLEAR     66  60  81 S12       29.98R
ROGERS         PTCLDY    64  60  87 SE8       29.97R
SILOAM SPGS    MOCLDY    65  61  87 S10       29.97R
HIGHFILL       PTCLDY    65  61  87 S10       29.96R
SPRINGDALE     MOCLDY    66  61  82 S13       29.97F
$$

ARZ004-005-016-211400-
NORTH CENTRAL ARKANSAS

CITY           SKY/WX    TMP DP  RH WIND       PRES   REMARKS
BATESVILLE     CLOUDY    65  60  84 SE7       30.07F
FLIPPIN        CLEAR     62  58  86 SE5       30.01F
MTN HOME       CLEAR     62  59  90 SE7       30.01F
$$

ARZ040-041-211400-
WEST CENTRAL ARKANSAS

CITY           SKY/WX    TMP DP  RH WIND       PRES   REMARKS
MENA           CLOUDY    70  70 100 SE3       30.00S
$$

ARZ009-017-025-026-028-211400-
NORTHEAST ARKANSAS

CITY           SKY/WX    TMP DP  RH WIND       PRES   REMARKS
JONESBORO      CLOUDY    62  58  86 SE3       30.10S
NEWPORT        LGT RAIN  63  59  87 SE7       30.09R
WALNUT RIDGE   CLOUDY    63  58  83 SE7       30.09S
BLYTHEVILLE    CLOUDY    63  53  70 S10       30.13R
$$

ARZ022-023-033-042-044-211400-
CENTRAL ARKANSAS

CITY           SKY/WX    TMP DP  RH WIND       PRES   REMARKS
LITTLE ROCK    CLOUDY    65  62  90 SE10      30.06S
N LITTLE ROCK    N/A     65  60  86 SE6       30.07S
JACKSONVILLE   MOCLDY    63  62  99 E3        30.05S
SEARCY         CLOUDY    64  63  96 E3        30.08R
HOT SPRINGS    CLOUDY    68  66  93 S7G17     30.03F
RUSSELLVILLE   MOCLDY    65  60  84 E7        30.00F
CLINTON        CLOUDY    59  59 100 CALM      30.05F FOG
$$

ARZ036-211400-
EAST ARKANSAS

CITY           SKY/WX    TMP DP  RH WIND       PRES   REMARKS
WEST MEMPHIS   CLOUDY    64  55  72 S8        30.11R
$$

ARZ050-053-066-070-073-211400-
SOUTHWEST ARKANSAS

CITY           SKY/WX    TMP DP  RH WIND       PRES   REMARKS
ARKADELPHIA    CLOUDY    65  63  93 VRB3      30.04F
CAMDEN         CLOUDY    66  63  88 CALM      30.05R
TEXARKANA      CLOUDY    69  68  96 S14       30.00F
EL DORADO      CLOUDY    67  67 100 SE3       30.05R
DE QUEEN       CLOUDY    66  66 100 E3        29.97S
$$

ARZ056-057-069-211400-
SOUTHEAST ARKANSAS

CITY           SKY/WX    TMP DP  RH WIND       PRES   REMARKS
PINE BLUFF     CLOUDY    66  61  84 SE5       30.07R
STUTTGART      CLOUDY    65  61  87 SE8       30.08R
MONTICELLO     CLOUDY    66  62  87 SE5       30.07R

$$





USA.gov is the U.S. government's official web portal to all federal, state and local government web resources and services.